THY8YT LTFM-LROP

Flight info

Callsign THY8YT
Flight time N/A
Altitude 40000
Route IBLAX P727 BGS L622 GONGO DCT KOMAN DCT OBUGA
Aircraft B77W/H-SDE1E2E3FGHIJ2J3J4J5M1RWXY/LB1D1

Departure

Time N/A
Airport İstanbul Airport (LTFM)

Arrival

Time 2026-04-30 17:54
Airport Bucharest Henri Coandă International Airport (LROP)
Time Latitude Longitude Altitude Speed Heading
2026-04-30 17:39 44.23383 25.55157 11018 ft 305 kts 300°
2026-04-30 17:41 44.36911 25.49832 8925 ft 237 kts 354°
2026-04-30 17:42 44.40163 25.49327 7940 ft 233 kts 354°
2026-04-30 17:42 44.44965 25.48571 6527 ft 228 kts 355°
2026-04-30 17:43 44.48092 25.48075 6379 ft 223 kts 355°
2026-04-30 17:44 44.51828 25.50229 5944 ft 211 kts 68°
2026-04-30 17:44 44.52494 25.56398 5452 ft 214 kts 82°
2026-04-30 17:46 44.53243 25.66197 4121 ft 195 kts 82°
2026-04-30 17:47 44.53844 25.73811 3184 ft 191 kts 82°
2026-04-30 17:48 44.54414 25.80691 2822 ft 162 kts 82°
2026-04-30 17:48 44.54742 25.85052 2820 ft 141 kts 83°
2026-04-30 17:49 44.55152 25.90423 2657 ft 138 kts 82°
2026-04-30 17:50 44.55551 25.95641 1995 ft 134 kts 82°
2026-04-30 17:51 44.55845 25.99533 1481 ft 135 kts 82°
2026-04-30 17:52 44.56152 26.03565 896 ft 141 kts 82°
2026-04-30 17:53 44.56620 26.09728 323 ft 69 kts 84°
2026-04-30 17:54 44.56792 26.10759 324 ft 0 kts 356°
2026-04-30 17:56 44.56903 26.10745 324 ft 11 kts 352°
2026-04-30 17:57 44.57063 26.10471 324 ft 19 kts 267°
2026-04-30 17:58 44.57041 26.09930 323 ft 6 kts 312°
2026-04-30 17:59 44.57355 26.09862 324 ft 17 kts 354°
2026-04-30 18:00 44.57565 26.09820 323 ft 14 kts 328°
2026-04-30 18:00 44.57544 26.09177 327 ft 24 kts 264°
2026-04-30 18:01 44.57505 26.08664 326 ft 14 kts 264°
2026-04-30 18:02 44.57287 26.08497 323 ft 24 kts 173°
2026-04-30 18:02 44.56908 26.08501 323 ft 9 kts 245°
2026-04-30 18:03 44.56896 26.08428 326 ft 3 kts 276°
2026-04-30 18:04 44.57023 26.08284 323 ft 15 kts 309°
2026-04-30 18:05 44.57035 26.08263 327 ft 0 kts 309°